User: anonymous   Login
Location: Waning Moon II Observatory
(30.3730°N, 89.7620°W)
Time: 06:08:35
(UTC-05:00)
Language:

Cosmos 1825 Rocket - Orbit

View from above orbital plane
View from above orbital plane
View from above satellite
View from above satellite

Ground track
Ground track

The orbit data is extracted from the following two-line orbital elements,

1 17567U 87024B   14304.33394425  .00000516  00000-0  60238-4 0  5005
2 17567 082.5317 017.1760 0017877 270.7801 157.3897 14.83194368494162
Epoch (UTC): 31 October 2014 08:00:52
Eccentricity: 0.0017877
inclination: 82.5317°
perigee height: 607 km
apogee height: 632 km
right ascension of ascending node: 17.1760°
argument of perigee: 270.7801°
revolutions per day: 14.83194368
mean anomaly at epoch: 157.3897°
orbit number at epoch: 49416

The dashed part of the orbit path shows where the satellite is in the earth's shadow,  

DLR